Tracking 19176 objects as of 25-May-2018
HD Live streaming from Space Station
objects crossing your sky now

OV1-9

Track OV1-9 now!
10-day predictions
OV1-9 is classified as:


NORAD ID: 2610
Int'l Code: 1966-111A
Perigee: 481.6 km
Apogee: 4,546.8 km
Inclination: 99.1 °
Period: 138.9 minutes
Semi major axis: 8885 km
RCS: 0.6636 m2 (medium)
Launch date: December 11, 1966
Source: United States (US)
Launch site: AIR FORCE WESTERN TEST RANGE (AFWTR)
aabbcc
Your satellite tracking list
Your tracking list is empty




NASA's NSSDC Master Catalog

Two Line Element Set (TLE):
1  2610U 66111A   18144.58180093 +.00000027 +00000-0 +19370-4 0  9999
2  2610 099.0887 153.9916 2287648 185.0257 172.3470 10.36579075927556
Source of the keplerian elements: AFSPC